FW0532 Weather Reports


time (UTC)temp
C
wind
direction
speed
KPH
gust
KPH
rain 1hr
cm
rain 24hr
cm
rain mn
cm
humidity
%
barometer
mb
20260508220320 16 5 0.0 3.2 0.00 0.00 0.00 67 1007.6
20260508215819 16 210 1.6 3.2 0.00 0.00 0.00 67 1007.7
20260508215319 16 210 0.0 1.6 0.00 0.00 0.00 66 1007.7
20260508214819 16 210 0.0 1.6 0.00 0.00 0.00 67 1007.7
20260508214319 16 139 0.0 3.2 0.00 0.00 0.00 60 1007.7
20260508212818 17 154 3.2 9.7 0.00 0.00 0.00 59 1007.9
20260508212318 17 228 1.6 9.7 0.00 0.00 0.00 57 1007.8
20260508211818 17 204 4.8 9.7 0.00 0.00 0.00 56 1008.1
20260508210818 17 198 9.7 11.3 0.00 0.00 0.00 55 1008.1
20260508210318 17 213 0.0 11.3 0.00 0.00 0.00 56 1008.2
20260508205318 17 213 3.2 17.7 0.00 0.00 0.00 54 1008.2
20260508204817 17 224 1.6 17.7 0.00 0.00 0.00 55 1008.2
20260508203817 17 215 8.0 19.3 0.00 0.00 0.00 55 1008.4
20260508203316 17 175 4.8 19.3 0.00 0.00 0.00 54 1008.4
20260508202817 17 268 4.8 16.1 0.00 0.00 0.00 54 1008.3
20260508202316 17 188 4.8 17.7 0.00 0.00 0.00 54 1008.3
20260508201816 17 248 8.0 19.3 0.00 0.00 0.00 55 1008.3
20260508201316 17 179 14.5 22.5 0.00 0.00 0.00 55 1008.5
20260508200816 17 183 6.4 25.7 0.00 0.00 0.00 52 1008.5
20260508200316 17 176 16.1 25.7 0.00 0.00 0.00 52 1008.5
20260508195816 17 247 22.5 22.5 0.00 0.00 0.00 52 1008.6
20260508195315 17 198 6.4 27.4 0.00 0.00 0.00 52 1008.6
20260508194315 18 191 12.9 25.7 0.00 0.00 0.00 53 1008.9
20260508193815 18 304 9.7 22.5 0.00 0.00 0.00 52 1008.9
20260508193315 18 211 16.1 22.5 0.00 0.00 0.00 51 1008.9
20260508192815 18 220 14.5 24.1 0.00 0.00 0.00 51 1009.0
20260508192314 18 196 9.7 24.1 0.00 0.00 0.00 54 1008.9
20260508191814 18 220 4.8 17.7 0.00 0.00 0.00 53 1009.0
20260508191314 18 194 3.2 19.3 0.00 0.00 0.00 52 1009.0
20260508190814 18 217 3.2 25.7 0.00 0.00 0.00 51 1009.0
20260508190314 18 317 11.3 29.0 0.00 0.00 0.00 50 1009.0
20260508185814 18 237 9.7 29.0 0.00 0.00 0.00 50 1009.0
20260508184813 18 175 16.1 30.6 0.00 0.00 0.00 50 1009.3
20260508183313 17 256 4.8 22.5 0.00 0.00 0.00 52 1009.3
20260508182813 17 206 9.7 22.5 0.00 0.00 0.00 53 1009.4
20260508182313 17 213 6.4 24.1 0.00 0.00 0.00 52 1009.4
20260508181812 17 232 8.0 25.7 0.00 0.00 0.00 53 1009.5
20260508181312 17 249 8.0 30.6 0.00 0.00 0.00 53 1009.6
20260508180812 17 190 11.3 30.6 0.00 0.00 0.00 52 1009.6
20260508180312 18 213 9.7 30.6 0.00 0.00 0.00 51 1009.7
20260508175812 17 261 11.3 30.6 0.00 0.00 0.00 52 1009.8
20260508175312 17 273 9.7 24.1 0.00 0.00 0.00 53 1009.9
20260508174812 17 333 8.0 29.0 0.00 0.00 0.00 53 1010.0
20260508174311 17 192 22.5 29.0 0.00 0.00 0.00 55 1010.2
20260508173812 17 200 17.7 22.5 0.00 0.00 0.00 54 1010.4
20260508173311 17 213 17.7 32.2 0.00 0.00 0.00 53 1010.4
20260508172311 18 201 14.5 30.6 0.00 0.00 0.00 53 1010.5
20260508171811 18 181 16.1 30.6 0.00 0.00 0.00 50 1010.6
20260508170810 19 236 4.8 20.9 0.00 0.00 0.00 52 1010.6
20260508165810 19 192 1.6 22.5 0.00 0.00 0.00 52 1010.8
20260508165310 18 178 17.7 17.7 0.00 0.00 0.00 55 1010.9
20260508164810 18 261 4.8 16.1 0.00 0.00 0.00 53 1011.0
20260508163809 18 201 1.6 20.9 0.00 0.00 0.00 53 1011.3
20260508163309 18 242 4.8 20.9 0.00 0.00 0.00 53 1011.4
20260508162309 17 197 6.4 22.5 0.00 0.00 0.00 54 1011.5
20260508161809 17 171 1.6 22.5 0.00 0.00 0.00 59 1011.7
20260508161308 17 217 8.0 22.5 0.00 0.00 0.00 52 1011.5
20260508160808 17 227 6.4 20.9 0.00 0.00 0.00 57 1011.6
20260508155808 17 166 3.2 24.1 0.00 0.00 0.00 57 1011.4
20260508155308 17 186 8.0 22.5 0.00 0.00 0.00 54 1011.4
20260508154808 16 238 1.6 22.5 0.00 0.00 0.00 54 1011.4
20260508154308 16 205 9.7 20.9 0.00 0.00 0.00 54 1011.4
20260508153807 17 218 3.2 20.9 0.00 0.00 0.00 54 1011.4
20260508153307 17 333 11.3 20.9 0.00 0.00 0.00 55 1011.5
20260508152808 16 203 11.3 19.3 0.00 0.00 0.00 56 1011.6
20260508151807 16 217 4.8 19.3 0.00 0.00 0.00 56 1011.7
20260508151307 16 232 14.5 20.9 0.00 0.00 0.00 57 1011.8
20260508150807 15 171 14.5 20.9 0.00 0.00 0.00 59 1011.9
20260508150307 15 260 4.8 19.3 0.00 0.00 0.00 60 1012.0
20260508145307 15 263 16.1 17.7 0.00 0.00 0.00 58 1012.0
20260508144806 16 215 11.3 12.9 0.00 0.00 0.00 56 1012.0
20260508144306 16 281 1.6 19.3 0.00 0.00 0.00 60 1012.1
20260508143806 16 151 6.4 19.3 0.00 0.00 0.00 59 1012.2
20260508143305 15 192 3.2 17.7 0.00 0.00 0.00 60 1012.1
20260508142806 14 253 0.0 17.7 0.00 0.00 0.00 65 1012.2
20260508142307 14 296 9.7 9.7 0.00 0.00 0.00 62 1012.2
20260508141306 14 355 1.6 9.7 0.00 0.00 0.00 64 1012.3
20260508135804 12 355 1.6 9.7 0.00 0.00 0.00 64 1012.3
20260508135306 12 276 1.6 6.4 0.00 0.00 0.00 65 1012.2
20260508134804 12 346 1.6 6.4 0.00 0.00 0.00 66 1012.6
20260508134304 12 360 1.6 6.4 0.00 0.00 0.00 69 1012.6
20260508133804 12 317 3.2 6.4 0.00 0.00 0.00 69 1012.6
20260508132804 12 140 1.6 4.8 0.00 0.00 0.00 71 1012.6
20260508131803 11 262 0.0 3.2 0.00 0.00 0.00 72 1012.4
20260508131303 11 355 0.0 3.2 0.00 0.00 0.00 69 1012.4
20260508130803 11 360 0.0 0.0 0.00 0.00 0.00 70 1012.4
20260508130333 11 13 0.0 1.6 0.00 0.00 0.00 70 1012.3
20260508125803 11 13 0.0 8.0 0.00 0.00 0.00 71 1012.3
20260508125332 11 215 0.0 8.0 0.00 0.00 0.00 69 1012.4
20260508124832 11 220 0.0 4.8 0.00 0.00 0.00 69 1012.3
20260508124332 10 212 1.6 6.4 0.00 0.00 0.00 72 1012.3
20260508123832 10 292 0.0 9.7 0.00 0.00 0.00 73 1012.4
20260508122831 10 234 0.0 9.7 0.00 0.00 0.00 72 1012.2
20260508122332 10 288 3.2 9.7 0.00 0.00 0.00 72 1012.2
20260508121831 10 194 1.6 6.4 0.00 0.00 0.00 73 1012.2
20260508120832 10 117 0.0 3.2 0.00 0.00 0.00 73 1012.2
20260508120331 10 113 0.0 4.8 0.00 0.00 0.00 72 1012.1
20260508115330 10 250 3.2 8.0 0.00 0.00 0.00 72 1012.1
20260508114830 10 273 4.8 8.0 0.00 0.00 0.00 72 1012.0
20260508113830 9 232 0.0 4.8 0.00 0.00 0.00 72 1012.0
20260508113330 9 286 0.0 3.2 0.00 0.00 0.00 73 1012.0
20260508112830 9 90 1.6 6.4 0.00 0.00 0.00 73 1012.0
20260508112330 9 300 0.0 6.4 0.00 0.00 0.00 72 1011.9
20260508111330 8 223 0.0 8.0 0.00 0.00 0.00 71 1011.7
20260508110829 8 202 4.8 8.0 0.00 0.00 0.00 71 1011.4
20260508105829 8 232 3.2 11.3 0.00 0.00 0.00 71 1011.7
20260508104829 8 302 3.2 11.3 0.00 0.00 0.00 71 1011.5
20260508104329 8 212 0.0 9.7 0.00 0.00 0.00 71 1011.5
20260508103828 8 194 3.2 9.7 0.00 0.00 0.00 71 1011.6
20260508103329 8 234 3.2 9.7 0.00 0.00 0.00 71 1011.5
20260508102828 8 230 6.4 9.7 0.00 0.00 0.00 71 1011.5
20260508102328 8 197 8.0 9.7 0.00 0.00 0.00 71 1011.5
20260508101828 8 229 1.6 9.7 0.00 0.00 0.00 70 1011.4
20260508101328 8 242 4.8 8.0 0.00 0.00 0.00 71 1011.5
20260508100828 8 210 4.8 6.4 0.00 0.00 0.00 71 1011.5
20260508100327 8 191 0.0 9.7 0.00 0.00 0.00 70 1011.5
20260508095327 8 188 3.2 9.7 0.00 0.00 0.00 70 1011.5
20260508094827 8 214 3.2 9.7 0.00 0.00 0.00 70 1011.4
20260508094327 8 276 1.6 9.7 0.00 0.00 0.00 71 1011.4
20260508093827 8 238 6.4 9.7 0.00 0.00 0.00 71 1011.5
20260508093326 8 192 4.8 8.0 0.00 0.00 0.00 70 1011.6
20260508092826 8 209 1.6 8.0 0.00 0.00 0.00 70 1011.6
20260508092326 8 207 3.2 11.3 0.00 0.00 0.00 71 1011.5
20260508091325 8 199 1.6 9.7 0.00 0.00 0.00 70 1011.6
20260508090325 8 201 3.2 9.7 0.00 0.00 0.00 71 1011.8
20260508085825 8 201 1.6 9.7 0.00 0.00 0.00 71 1011.7
20260508085325 8 199 1.6 9.7 0.00 0.00 0.00 71 1011.7
20260508084825 8 234 3.2 9.7 0.00 0.00 0.00 71 1011.6
20260508084325 8 226 4.8 9.7 0.00 0.00 0.00 71 1011.6
20260508083826 8 188 4.8 9.7 0.00 0.00 0.00 71 1011.7
20260508083325 8 216 3.2 9.7 0.00 0.00 0.00 71 1011.6
20260508082825 8 200 4.8 9.7 0.00 0.00 0.00 71 1011.7
20260508082324 8 217 3.2 8.0 0.00 0.00 0.00 71 1011.7
20260508081824 8 232 1.6 11.3 0.00 0.00 0.00 70 1011.7
20260508081324 8 236 0.0 11.3 0.00 0.00 0.00 70 1011.8
20260508080824 8 244 0.0 9.7 0.00 0.00 0.00 70 1011.8
20260508080323 8 182 3.2 9.7 0.00 0.00 0.00 70 1011.8
20260508075823 8 198 4.8 11.3 0.00 0.00 0.00 70 1011.8
20260508075323 8 214 1.6 11.3 0.00 0.00 0.00 70 1011.8
20260508074823 8 212 1.6 9.7 0.00 0.00 0.00 69 1011.8
20260508073823 8 211 1.6 11.3 0.00 0.00 0.00 69 1011.8
20260508073322 8 232 4.8 11.3 0.00 0.00 0.00 69 1011.8
20260508072823 8 194 3.2 11.3 0.00 0.00 0.00 69 1011.8
20260508072322 8 202 1.6 11.3 0.00 0.00 0.00 69 1011.8
20260508071822 8 221 3.2 9.7 0.00 0.00 0.00 68 1011.8
20260508071322 8 202 4.8 11.3 0.00 0.00 0.00 69 1011.9
20260508070822 8 203 1.6 11.3 0.00 0.00 0.00 69 1011.9
20260508070322 8 262 3.2 9.7 0.00 0.00 0.00 69 1012.0
20260508065822 8 227 3.2 9.7 0.00 0.00 0.00 69 1012.1
20260508065322 8 209 3.2 9.7 0.00 0.00 0.00 69 1012.3
20260508064821 9 200 1.6 9.7 0.00 0.00 0.00 68 1012.3
20260508064321 9 238 3.2 9.7 0.00 0.00 0.00 68 1012.3
20260508063821 9 197 3.2 9.7 0.00 0.00 0.00 68 1012.2
20260508063321 9 227 3.2 9.7 0.00 0.00 0.00 67 1012.3
20260508062821 9 194 4.8 9.7 0.00 0.00 0.00 67 1012.2
20260508062320 9 206 3.2 11.3 0.00 0.00 0.00 67 1012.2
20260508061820 9 203 1.6 11.3 0.00 0.00 0.00 67 1012.2
20260508061320 9 240 1.6 14.5 0.00 0.00 0.00 67 1012.3
20260508060820 9 214 3.2 14.5 0.00 0.00 0.00 67 1012.4
20260508060320 9 196 1.6 11.3 0.00 0.00 0.00 67 1012.3
20260508055820 10 203 3.2 11.3 0.00 0.00 0.00 67 1012.3
20260508055320 10 200 0.0 14.5 0.00 0.00 0.00 66 1012.4
20260508054820 10 207 4.8 16.1 0.00 0.00 0.00 66 1012.3
20260508054319 10 175 6.4 16.1 0.00 0.00 0.00 66 1012.3
20260508053820 10 215 4.8 11.3 0.00 0.00 0.00 66 1012.3
20260508051818 10 189 1.6 14.5 0.00 0.00 0.00 65 1012.4
20260508051319 10 251 9.7 16.1 0.00 0.00 0.00 65 1012.4
20260508050818 10 194 3.2 16.1 0.00 0.00 0.00 65 1012.4
20260508050318 10 224 8.0 16.1 0.00 0.00 0.00 65 1012.3
20260508045818 10 219 3.2 16.1 0.00 0.00 0.00 66 1012.3
20260508045318 10 225 0.0 11.3 0.00 0.00 0.00 66 1012.2
20260508044817 10 209 1.6 11.3 0.00 0.00 0.00 66 1012.4
20260508044317 10 196 4.8 11.3 0.00 0.00 0.00 66 1012.3
20260508043817 10 223 1.6 8.0 0.00 0.00 0.00 67 1012.4
20260508043317 10 217 1.6 11.3 0.00 0.00 0.00 67 1012.4
20260508042817 10 204 0.0 11.3 0.00 0.00 0.00 66 1012.4
20260508042317 10 214 9.7 9.7 0.00 0.00 0.00 66 1012.4
20260508041816 10 211 8.0 8.0 0.00 0.00 0.00 67 1012.3
20260508041317 10 216 4.8 9.7 0.00 0.00 0.00 68 1012.4
20260508040817 10 194 4.8 9.7 0.00 0.00 0.00 72 1012.4
20260508040316 10 217 0.0 8.0 0.00 0.00 0.00 72 1012.4
20260508035816 10 227 1.6 4.8 0.00 0.00 0.00 69 1012.2
20260508035316 10 227 3.2 4.8 0.00 0.00 0.00 68 1012.2
20260508034315 10 207 0.0 6.4 0.00 0.00 0.00 70 1012.2
20260508033816 10 211 1.6 8.0 0.00 0.00 0.00 70 1012.3
20260508033315 10 205 4.8 8.0 0.00 0.00 0.00 70 1012.1
20260508032815 10 211 1.6 6.4 0.00 0.00 0.00 71 1012.3
20260508032315 10 199 4.8 4.8 0.00 0.00 0.00 73 1012.3
20260508031815 10 199 0.0 4.8 0.00 0.00 0.00 72 1012.4
20260508030814 10 211 0.0 4.8 0.00 0.00 0.00 72 1012.4
20260508030314 9 210 0.0 4.8 0.00 0.00 0.00 75 1012.4
20260508025815 9 210 3.2 4.8 0.00 0.00 0.00 77 1012.2
20260508025314 9 210 0.0 0.0 0.00 0.00 0.00 77 1012.3
20260508024814 10 210 0.0 0.0 0.00 0.00 0.00 74 1012.3
20260508024313 10 210 0.0 1.6 0.00 0.00 0.00 72 1012.3
20260508022313 11 211 0.0 3.2 0.00 0.00 0.00 68 1012.4
20260508021813 11 210 0.0 3.2 0.00 0.00 0.00 68 1012.4
20260508021313 10 211 0.0 3.2 0.00 0.00 0.00 69 1012.2
20260508020813 10 210 0.0 1.6 0.00 0.00 0.00 71 1012.2
20260508020612 10 0 0.0 0.0 0.00 0.00 0.00 75 1012.2
20260508015822 9 213 0.0 0.0 0.00 0.00 0.00 76 1012.1
20260508015322 9 213 0.0 0.0 0.00 0.00 0.00 74 1012.0
20260508014822 9 213 0.0 0.0 0.00 0.00 0.00 76 1012.0
20260508014321 9 213 0.0 0.0 0.00 0.00 0.00 78 1011.9
20260508013821 10 213 0.0 0.0 0.00 0.00 0.00 78 1012.1
20260508013321 10 213 0.0 0.0 0.00 0.00 0.00 74 1012.1
20260508012821 10 213 0.0 0.0 0.00 0.00 0.00 73 1011.9
20260508012321 10 213 0.0 0.0 0.00 0.00 0.00 75 1012.0
20260508011320 10 213 0.0 0.0 0.00 0.00 0.00 72 1012.0
20260508010821 10 213 0.0 0.0 0.00 0.00 0.00 70 1012.1
20260508010320 10 213 0.0 0.0 0.00 0.00 0.00 71 1012.0
20260508005320 11 213 0.0 0.0 0.00 0.00 0.00 68 1011.9
20260508004820 11 213 0.0 0.0 0.00 0.00 0.00 64 1012.0
20260508004320 11 213 0.0 3.2 0.00 0.00 0.00 65 1012.1
20260508003820 11 213 0.0 4.8 0.00 0.00 0.00 70 1012.1
20260508003319 11 135 3.2 4.8 0.00 0.00 0.00 68 1012.1
20260508002319 11 195 0.0 0.0 0.00 0.00 0.00 71 1012.0
20260508001819 11 195 0.0 0.0 0.00 0.00 0.00 71 1012.0
20260508000819 11 236 0.0 1.6 0.00 0.00 0.00 65 1012.0
20260508000320 11 219 0.0 0.0 0.00 0.00 0.00 65 1011.9
20260507234819 12 219 0.0 3.2 0.00 0.00 0.00 60 1011.7
20260507234318 13 219 0.0 3.2 0.00 0.00 0.00 54 1011.6
20260507233317 14 180 1.6 9.7 0.00 0.00 0.00 48 1011.6
20260507232818 14 234 0.0 9.7 0.00 0.00 0.00 49 1011.6
20260507231817 15 206 4.8 8.0 0.00 0.00 0.00 46 1011.8
20260507231317 15 182 1.6 6.4 0.00 0.00 0.00 47 1011.8
20260507230817 15 221 3.2 6.4 0.00 0.00 0.00 45 1011.7
20260507230316 14 252 3.2 6.4 0.00 0.00 0.00 52 1011.8
20260507225816 13 246 0.0 9.7 0.00 0.00 0.00 51 1011.6
20260507224816 15 198 9.7 9.7 0.00 0.00 0.00 47 1011.6
20260507224316 15 279 4.8 9.7 0.00 0.00 0.00 50 1011.6
20260507223315 15 34 0.0 11.3 0.00 0.00 0.00 44 1011.5
20260507222816 14 204 0.0 3.2 0.00 0.00 0.00 46 1011.5
20260507222315 15 200 0.0 9.7 0.00 0.00 0.00 49 1011.6
20260507221816 14 200 0.0 9.7 0.00 0.00 0.00 45 1011.7
20260507220815 14 125 0.0 9.7 0.00 0.00 0.00 54 1011.7